Other Public Products
Issued by NWS Grand Forks, ND

Home | Current Version | Previous Version | Graphics & Text | Print | Product List | Glossary On
Versions: 1 2 3 4 5 6 7 8 9 10 11 12 13 14 15 16 17 18 19 20 21 22 23 24 25 26 27 28 29 30 31 32 33 34 35 36 37 38 39 40 41 42 43 44 45 46 47 48 49 50
000
FPUS83 KFGF 220510
OPUFGF
PRAIRIE TO PINES WEATHER ROUNDUP
NATIONAL WEATHER SERVICE EASTERN NORTH DAKOTA/GRAND FORKS ND
1100 PM CST SUN JAN 21 2018

 **SATELLITE DATA USED TO AUGMENT SKY COVER AT AUTOMATED STATIONS**
 *****  WEATHER ACROSS EASTERN NORTH DAKOTA  *****

CITY           SKY/WX    TMP DP  RH WIND       PRES   REMARKS
GRAND FORKS    CLOUDY    24  21  88 N3        30.11F
GRND FORKS AFB CLOUDY    23  20  91 N3        30.11F
GRND FORKS NWS NOT AVBL
BUXTON           N/A     24  23  99 N5          N/A  WCI  18
DEVILS LAKE    CLOUDY    22  20  92 S6        30.08S FOG     WCI  14
FARGO          CLOUDY    26  23  88 N10       30.09S WCI  16
WAHPETON ARPT  CLOUDY    27  23  86 N12       30.07S WCI  16
$$

 *****  WEATHER ACROSS CENTRAL AND WESTERN NORTH DAKOTA  *****

CITY           SKY/WX    TMP DP  RH WIND       PRES   REMARKS
JAMESTOWN      CLOUDY    25  23  92 E3        30.06S
BISMARCK       FOG       14  13  95 NE9       30.06S VSB 1/2 WCI   2
MINOT          FAIR      19  15  84 SW9       30.01S WCI   8
MINOT AFB      FAIR      11   8  89 SW5       30.00S WCI   3
GARRISON         N/A     12  10  92 CALM      30.02S
WILLISTON      FAIR      16  13  88 CALM      30.02S
DICKINSON      FAIR      18  15  88 W8        29.98F WCI   8
HETTINGER      FAIR      20  15  81 NW3       30.02F
$$

 *****  OTHER OBSERVATIONS NORTHEAST NORTH DAKOTA  *****

CITY           SKY/WX    TMP DP  RH WIND       PRES   REMARKS
WALHALLA       FAIR      21  21 100 CALM      30.12S
LANGDON        NOT AVBL
CAVALIER         N/A     23  21  93 CALM      30.12S
GRAFTON        NOT AVBL
CANDO          FOG       21  21 100 S9        30.09S VSB 1/2 WCI  11
FORT TOTTEN      N/A     23  22  97 SE2       29.95S
ROLLA          FOG       19  19 100 MISG      30.05F VSB 1/4
RUGBY          NOT AVBL
 ***** THE ABOVE OBSERVATIONS ARE NON NWS ARE NOT QUALITY
        CONTROLLED AND MAY MIS-REPORT RAIN FOR SNOW...
$$

 *****  OTHER OBSERVATIONS SOUTHEAST NORTH DAKOTA *****

CITY           SKY/WX    TMP DP  RH WIND       PRES   REMARKS
COOPERSTOWN    CLOUDY    23  23 100 N5        30.08F WCI  17
VALLEY CITY    NOT AVBL
OAKES            N/A     23  23 100 N12       30.06F WCI  12
GWINNER          N/A     25  23  93 NE13      30.06F WCI  13
BUFFALO        NOT AVBL
WYNDMERE       NOT AVBL
 ***** THE ABOVE OBSERVATIONS ARE NON NWS ARE NOT QUALITY
       CONTROLLED AND MAY MIS-REPORT RAIN FOR SNOW...
$$

  *****  WEATHER ACROSS NORTHERN MINNESOTA  *****

CITY           SKY/WX    TMP DP  RH WIND       PRES   REMARKS
FLAG ISLAND    CLOUDY    21  21 100 NE6       30.11S FOG     WCI  14
WARROAD        CLOUDY    25  19  80 CALM      30.12S
ROSEAU         CLOUDY    25  19  80 CALM      30.11F
HALLOCK        CLOUDY    21  19  93 CALM      30.12S
THF RVR FALLS  CLOUDY    23  22  96 NE6       30.11S WCI  16
HALSTAD        NOT AVBL
FOSSTON        CLOUDY    23  21  93 NE7       30.08S WCI  15
BAUDETTE       CLOUDY    25  23  92 NE6       30.09S WCI  18
WASKISH        CLOUDY    25  25 100 CALM      30.08F
CROOKSTON      MOCLDY    25  23  93 NE3       30.12F
$$
  *****  WEATHER ACROSS CENTRAL AND WEST MINNESOTA  *****

CITY           SKY/WX    TMP DP  RH WIND       PRES   REMARKS
BEMIDJI        CLOUDY    24  24  97 N6        30.05F WCI  17
PARK RAPIDS    CLOUDY    25  22  88 NE9       30.03S FOG     WCI  15
WADENA         CLOUDY    25  25 100 NE9       30.02S FOG     WCI  15
DETROIT LAKES  CLOUDY    27  27 100 E8        30.05S WCI  18
MOORHEAD       CLOUDY    25  21  86 N9        30.09F WCI  15
FERGUS FALLS   CLOUDY    27  25  93 NE8       30.04S WCI  18
ELBOW LAKE     CLOUDY    27  25  94 NE7       30.03S WCI  19
MORRIS MN      CLOUDY    27  25  93 N9        30.00F FOG     WCI  17
STAPLES        CLOUDY    25  25 100 N6        30.02S FOG     WCI  18
WHEATON        CLOUDY    25  23  93 N10       30.06F WCI  15
$$
  *****  WEATHER ELSEWHERE ACROSS MINNESOTA  *****

CITY           SKY/WX    TMP DP  RH WIND       PRES   REMARKS
DULUTH         LGT SNOW  29  28  96 E12       30.03S VSB 1   WCI  19
INTRNTL FALLS  CLOUDY    24  22  91 NE7       30.09S FOG     WCI  16
ELY            NOT AVBL
CLOQUET        LGT SNOW  28  28 100 E9        30.03S WCI  20
BRAINERD       CLOUDY    28  24  85 NE9       30.02F WCI  19
HIBBING        CLOUDY    26  25  96 E3        30.05S FOG
ALEXANDRIA     CLOUDY    25  22  88 N12       30.00S WCI  14
SAINT CLOUD    CLOUDY    30  26  85 N6        29.99R WCI  24
MINNEAPOLIS    CLOUDY    35  30  82 N8        29.94F
$$

  *****  WEATHER ACROSS SOUTH DAKOTA  *****

CITY           SKY/WX    TMP DP  RH WIND       PRES   REMARKS
SIOUX FALLS    LGT SNOW  33  29  85 NE22G29   29.85F WCI  21
BROOKINGS      LGT SNOW  29  26  89 NE20      29.92F FOG     WCI  16
WATERTOWN      CLOUDY    25  24  96 N16       29.93F WCI  12
HURON          CLOUDY    28  26  92 N9        29.97F WCI  19
SISSETON         N/A     25  23  92 N17       30.03F WCI  12
ABERDEEN       CLOUDY    26  24  92 N14       30.04F WCI  14
MITCHELL       LGT SNOW  32  31  96 N20       29.92F FOG     WCI  20
PIERRE         FAIR      28  26  92 N16       29.97F WCI  16
MOBRIDGE       FAIR      22  19  89 NW7       30.00F WCI  13
RAPID CITY     FAIR      30  21  69 N16       29.98F WCI  19
$$

  *****  SOME WEATHER IN NEARBY STATES *****

CITY           SKY/WX    TMP DP  RH WIND       PRES   REMARKS
GLASGOW MT     FAIR      11   9  92 SE6       30.00S WCI   1
GREAT FALLS MT FAIR      30  13  49 S18G28    29.91S WCI  18
CHEYENNE WY    CLOUDY    20  13  74 NW22G32   29.91S WCI   3
SCOTTSBLUFF NE CLOUDY    28  21  75 NW16      29.96S WCI  16
OMAHA NE       LGT RAIN  38  36  92 N12       29.63F FOG
DES MOINES IA  LGT RAIN  39  38  96 N12       29.64F FOG
DAVENPORT IA   FOG       43  41  93 E10       29.75F VSB 1/4
CHICAGO IL     FOG       43  42  97 SE7       29.83F VSB 1/8
EAU CLAIRE WI  CLOUDY    37  30  75 NE10      29.92F
LA CROSSE WI   LGT RAIN  41  34  76 E12G22    29.86F
$$

  *****  SOME NATIONAL WEATHER *****

CITY           SKY/WX    TMP DP  RH WIND       PRES   REMARKS
LA GUARDIA NY  CLOUDY    46  35  65 E3        30.16S
RALEIGH NC     FAIR      42  40  92 CALM      30.22S
ATLANTA GA     CLOUDY    54  43  66 S6        30.17S
NEW ORLEANS LA MOCLDY    63  60  90 SE13      30.03F
OKLAHOMA CITY  FAIR      50  26  39 W20G28    29.72R
ALBUQUERQUE NM FAIR      32  11  41 NW14G28   30.08R WCI  22
SALT LAKE CITY FAIR      28  19  69 SE9       30.29R WCI  19
LOS ANGELES CA FAIR      57  36  45 N3        30.29R
BOISE ID       CLOUDY    39  24  55 S5        30.18S
SEATTLE WA     MOCLDY    42  38  85 S13       29.99S
$$

*** WEATHER ACROSS MANITOBA...SASKATCHEWAN AND ONTARIO ***
                ***ONTARIO***

CITY           SKY/WX    TMP DP  RH WIND       PRES   REMARKS
GERALDTON      FLURRIES   3  -2  78 NE10      30.25R WCI -12
THUNDER BAY    CLOUDY    14  10  85 N6        30.21R WCI   5
SIOUX LOOKOUT  FLURRIES   9   5  85 E6        30.16R WCI  -1
TORONTO        DRZL/FOG  36  36 100 E3        30.06S VSB 1
BIG TROUT LK   MOCLDY   -13 -18  77 E3        30.38R
PICKLE LAKE    NOT AVBL
DRYDEN         CLOUDY    12  10  92 NE7       30.13S WCI   2
KENORA         CLOUDY    16  14  93 NE5       30.11S WCI   9
$$
                *** MANITOBA***

CITY           SKY/WX    TMP DP  RH WIND       PRES   REMARKS
BRANDON        CLOUDY    23  19  86 SE5       30.07R WCI  17
DAUPHIN        CLOUDY    16  14  93 E5        30.12R WCI   9
ISLAND LAKE    FLURRIES  -2  -8  78 E10G17    30.28S WCI -19
PILOT MOUND      N/A     21  19  93 S6          N/A  WCI  14
THE PAS        PTCLDY    -2  -8  78 NE6       30.18S WCI -14
THOMPSON       FLURRIES -15 -20  76 NE7       30.30S WCI -31
WINNIPEG       CLOUDY    19  14  79 S3        30.14S
LYNN LAKE      CLEAR    -18 -24  76 E6        30.23R WCI -33
CHURCHILL      PTCLDY   -26 -31  75 SW5       30.53R WCI -40
GILLAM         PTCLDY   -20 -26  76 E5        30.43S WCI -33
$$
                ***SASKATCHEWAN***

CITY           SKY/WX    TMP DP  RH WIND       PRES   REMARKS
ESTEVAN        CLEAR     10   9  92 SW5       29.99R WCI   2
KINDERSLEY     MOCLDY    18  14  86 SE14      29.81F WCI   4
LLOYDMINSTER   CLOUDY    21  21 100 SE18      29.80F FOG     WCI   6
PRINCE ALBERT  FLURRIES  12  10  92 E12       30.04F WCI  -2
REGINA         CLEAR     12  10  92 E7        29.96F WCI   2
YORKTON        FOG       23  23 100 SE8       30.01R VSB 5/8 WCI  14
N. BATTLEFORD  CLOUDY    23  21  93 SE23G29   29.91F W



USA.gov is the U.S. government's official web portal to all federal, state and local government web resources and services.